When you browse on this site, cookies collect data to enhance your experience and personalize the content and advertising you see.
Visit our Privacy Policy to learn more. By continuing to use the site, you agree to this use of cookies and data.
  • In Italy
  • List of Countries
  • For 7 days
  • Water Temperature
  • Weather Map
  • Weather Widgets
  • user-avatar
    Login

    Hourly Weather Donskoy

    Today, 17 February, Monday

    Time Temperature Precipitation Wind Pressure Humidity
    00:00 -2°C° 0 mm 8 mps 748 mmHg 88%
    01:00 -2°C° 0 mm 8 mps 748 mmHg 89%
    02:00 -3°C° 0 mm 9 mps 747 mmHg 89%
    03:00 -3°C° 0 mm 9 mps 747 mmHg 90%
    04:00 -3°C° 0 mm 9 mps 746 mmHg 87%
    05:00 -4°C° 0 mm 9 mps 746 mmHg 85%
    06:00 -4°C° 0 mm 9 mps 745 mmHg 83%
    07:00 -4°C° 0 mm 9 mps 745 mmHg 82%
    08:00 -4°C° 0 mm 9 mps 744 mmHg 81%
    09:00 -4°C° 0 mm 9 mps 744 mmHg 81%
    10:00 -3°C° 0 mm 10 mps 744 mmHg 80%
    11:00 -3°C° 0 mm 10 mps 743 mmHg 80%
    12:00 -3°C° 0 mm 10 mps 743 mmHg 80%
    13:00 -3°C° 0 mm 10 mps 742 mmHg 80%
    14:00 -3°C° 0 mm 10 mps 742 mmHg 80%
    15:00 -2°C° 0 mm 10 mps 742 mmHg 81%
    16:00 -3°C° 0 mm 10 mps 742 mmHg 80%
    17:00 -3°C° 0 mm 10 mps 742 mmHg 79%
    18:00 -3°C° 0 mm 10 mps 742 mmHg 78%
    19:00 -3°C° 0 mm 9 mps 742 mmHg 78%
    20:00 -3°C° 0 mm 9 mps 742 mmHg 79%
    21:00 -1°C° 0 mm 9 mps 742 mmHg 80%
    22:00 -1°C° 0 mm 8 mps 742 mmHg 82%
    23:00 -1°C° 0 mm 8 mps 742 mmHg 84%

    Tomorrow, 18 February, Tuesday

    Time Temperature Precipitation Wind Pressure Humidity
    00:00 -1°C° 0 mm 7 mps 742 mmHg 86%
    01:00 -1°C° 0 mm 7 mps 743 mmHg 89%
    02:00 -2°C° 0 mm 6 mps 743 mmHg 91%
    03:00 -2°C° 0 mm 6 mps 743 mmHg 94%
    04:00 -2°C° 0.1 mm 6 mps 743 mmHg 95%
    05:00 -2°C° 0.1 mm 6 mps 743 mmHg 97%
    06:00 -2°C° 0.1 mm 6 mps 742 mmHg 98%
    07:00 -1°C° 0.2 mm 5 mps 742 mmHg 98%
    08:00 -1°C° 0.2 mm 5 mps 743 mmHg 99%
    09:00 -1°C° 0.2 mm 5 mps 743 mmHg 99%
    10:00 -1°C° 0.3 mm 5 mps 742 mmHg 99%
    11:00 -1°C° 0.3 mm 5 mps 742 mmHg 99%
    12:00 -1°C° 0.3 mm 4 mps 742 mmHg 99%
    13:00 -1°C° 0.7 mm 4 mps 741 mmHg 99%
    14:00 -1°C° 0.7 mm 4 mps 741 mmHg 99%
    15:00 0°C° 0.7 mm 3 mps 741 mmHg 99%
    16:00 -1°C° 0.7 mm 4 mps 740 mmHg 99%
    17:00 -2°C° 0.7 mm 4 mps 740 mmHg 98%
    18:00 -2°C° 0.7 mm 5 mps 739 mmHg 98%
    19:00 -2°C° 0.9 mm 5 mps 739 mmHg 98%
    20:00 -2°C° 0.9 mm 5 mps 739 mmHg 98%
    21:00 -2°C° 0.9 mm 5 mps 739 mmHg 98%
    22:00 -1°C° 0.4 mm 4 mps 738 mmHg 98%
    23:00 -1°C° 0.4 mm 4 mps 738 mmHg 99%

    Day after tomorrow, 19 February, Wednesday

    Time Temperature Precipitation Wind Pressure Humidity
    00:00 -1°C° 0.4 mm 4 mps 738 mmHg 99%
    01:00 -1°C° 0.2 mm 4 mps 738 mmHg 99%
    02:00 -1°C° 0.2 mm 4 mps 738 mmHg 98%
    03:00 -1°C° 0.2 mm 5 mps 738 mmHg 98%
    04:00 -1°C° 0 mm 5 mps 738 mmHg 96%
    05:00 -1°C° 0 mm 5 mps 738 mmHg 95%
    06:00 -1°C° 0 mm 5 mps 738 mmHg 93%
    07:00 -1°C° 0 mm 5 mps 739 mmHg 92%
    08:00 -1°C° 0 mm 5 mps 739 mmHg 92%
    09:00 -1°C° 0 mm 5 mps 739 mmHg 91%
    10:00 -1°C° 0 mm 5 mps 740 mmHg 94%
    11:00 -1°C° 0 mm 5 mps 740 mmHg 96%
    12:00 -1°C° 0 mm 5 mps 740 mmHg 98%
    13:00 -1°C° 0 mm 5 mps 740 mmHg 98%
    14:00 -1°C° 0 mm 5 mps 740 mmHg 98%
    15:00 -1°C° 0 mm 4 mps 741 mmHg 98%
    16:00 -1°C° 0 mm 4 mps 741 mmHg 96%
    17:00 -1°C° 0 mm 4 mps 741 mmHg 93%
    18:00 -2°C° 0 mm 4 mps 741 mmHg 90%
    19:00 -2°C° 0 mm 4 mps 741 mmHg 89%
    20:00 -1°C° 0 mm 3 mps 742 mmHg 88%
    21:00 -1°C° 0 mm 3 mps 742 mmHg 86%
    22:00 -1°C° 0 mm 3 mps 742 mmHg 87%
    23:00 -1°C° 0 mm 3 mps 742 mmHg 88%

    20 February, Thursday

    Time Temperature Precipitation Wind Pressure Humidity
    00:00 -1°C° 0 mm 3 mps 742 mmHg 90%
    01:00 -2°C° 0 mm 3 mps 742 mmHg 90%
    02:00 -2°C° 0 mm 3 mps 742 mmHg 90%
    03:00 -4°C° 0 mm 3 mps 743 mmHg 91%
    04:00 -4°C° 0 mm 3 mps 743 mmHg 90%
    05:00 -4°C° 0 mm 3 mps 743 mmHg 90%
    06:00 -5°C° 0 mm 3 mps 743 mmHg 90%
    07:00 -5°C° 0 mm 3 mps 743 mmHg 90%
    08:00 -4°C° 0 mm 3 mps 743 mmHg 90%
    09:00 -4°C° 0 mm 3 mps 743 mmHg 91%
    10:00 -2°C° 0 mm 3 mps 743 mmHg 90%
    11:00 -3°C° 0 mm 4 mps 743 mmHg 89%
    12:00 -2°C° 0 mm 4 mps 744 mmHg 88%
    13:00 -1°C° 0 mm 3 mps 743 mmHg 90%
    14:00 -1°C° 0 mm 3 mps 743 mmHg 91%
    15:00 -1°C° 0 mm 3 mps 743 mmHg 93%
    16:00 -1°C° 0 mm 3 mps 743 mmHg 94%
    17:00 -1°C° 0 mm 3 mps 743 mmHg 95%
    18:00 -2°C° 0 mm 3 mps 743 mmHg 96%
    19:00 -2°C° 0 mm 3 mps 744 mmHg 96%
    20:00 -2°C° 0 mm 3 mps 744 mmHg 96%
    21:00 -2°C° 0 mm 3 mps 744 mmHg 96%
    22:00 -2°C° 0 mm 3 mps 744 mmHg 96%
    23:00 -2°C° 0 mm 3 mps 744 mmHg 96%

    21 February, Friday

    Time Temperature Precipitation Wind Pressure Humidity
    00:00 -2°C° 0 mm 3 mps 744 mmHg 96%
    01:00 -2°C° 0 mm 3 mps 744 mmHg 96%
    02:00 -2°C° 0 mm 2 mps 745 mmHg 96%
    03:00 -2°C° 0 mm 2 mps 745 mmHg 96%
    04:00 -2°C° 0 mm 2 mps 745 mmHg 96%
    05:00 -2°C° 0 mm 2 mps 745 mmHg 97%
    06:00 -2°C° 0 mm 2 mps 745 mmHg 97%
    07:00 -2°C° 0 mm 2 mps 745 mmHg 97%
    08:00 -2°C° 0 mm 2 mps 745 mmHg 97%
    09:00 -1°C° 0 mm 2 mps 746 mmHg 97%
    16:00 +1°C° 0 mm 1 mps 746 mmHg 99%
    17:00 +1°C° 0 mm 1 mps 746 mmHg 98%
    18:00 +1°C° 0 mm 1 mps 746 mmHg 98%
    19:00 +1°C° 0 mm 1 mps 746 mmHg 98%
    20:00 +1°C° 0 mm 1 mps 746 mmHg 98%
    21:00 -1°C° 0 mm 2 mps 746 mmHg 98%
    22:00 -1°C° 0 mm 2 mps 746 mmHg 97%
    23:00 -1°C° 0 mm 2 mps 746 mmHg 97%

    22 February, Saturday

    Time Temperature Precipitation Wind Pressure Humidity
    00:00 -2°C° 0 mm 2 mps 746 mmHg 97%
    01:00 -2°C° 0 mm 2 mps 746 mmHg 97%
    02:00 -2°C° 0 mm 2 mps 746 mmHg 97%
    03:00 -2°C° 0 mm 2 mps 746 mmHg 97%
    04:00 -3°C° 0.1 mm 2 mps 746 mmHg 97%
    05:00 -3°C° 0.1 mm 2 mps 745 mmHg 97%
    06:00 -3°C° 0.1 mm 2 mps 745 mmHg 97%
    07:00 -3°C° 0 mm 2 mps 745 mmHg 97%
    08:00 -3°C° 0 mm 2 mps 745 mmHg 97%
    09:00 -3°C° 0 mm 2 mps 745 mmHg 96%
    10:00 -3°C° 0 mm 2 mps 745 mmHg 96%
    11:00 -2°C° 0 mm 3 mps 745 mmHg 95%
    12:00 -2°C° 0 mm 3 mps 744 mmHg 94%
    13:00 -1°C° 0 mm 3 mps 744 mmHg 93%
    14:00 -1°C° 0 mm 3 mps 743 mmHg 92%
    15:00 -1°C° 0 mm 3 mps 743 mmHg 91%
    16:00 -3°C° 0 mm 4 mps 742 mmHg 92%
    17:00 -3°C° 0 mm 4 mps 742 mmHg 93%
    18:00 -4°C° 0 mm 4 mps 741 mmHg 94%
    19:00 -5°C° 0 mm 5 mps 741 mmHg 94%
    20:00 -5°C° 0 mm 5 mps 740 mmHg 94%
    21:00 -5°C° 0 mm 6 mps 740 mmHg 94%
    22:00 -5°C° 0.1 mm 6 mps 739 mmHg 94%
    23:00 -4°C° 0.1 mm 6 mps 738 mmHg 93%
    Show more